Regional Weather Roundup
Issued by NWS

Home | Current Version | Previous Version | Graphics & Text | Print | Product List | Glossary On
Versions: 1 2 3 4 5 6 7 8 9 10 11 12 13 14 15 16 17 18 19 20 21 22 23 24 25 26 27 28 29 30 31 32 33 34 35 36 37 38 39 40 41 42 43 44 45 46 47 48 49 50
000
ASUS45 KBOI 241610
RWRID
WEATHER ROUNDUP FOR IDAHO
NATIONAL WEATHER SERVICE BOISE ID
1000 AM MDT FRI APR 24 2015

NOTE: "FAIR" INDICATES FEW OR NO CLOUDS BELOW 12000 FEET
WITH NO SIGNIFICANT WEATHER AND/OR OBSTRUCTIONS TO VISIBILITY

IDZ012-014-241700-
SOUTHWEST IDAHO


CITY           SKY/WX    TMP DP  RH WIND       PRES   REMARKS
BOISE          CLOUDY    46  40  79 NE7       29.75F
CALDWELL       CLOUDY    48  37  66 CALM      29.77S
MOUNTAIN HOME  LGT RAIN  48  43  82 W12       29.76R
$$

IDZ016-017-241700-
SOUTHCENTRAL IDAHO


CITY           SKY/WX    TMP DP  RH WIND       PRES   REMARKS
BURLEY         CLOUDY    48  38  68 W15G25    29.71R
JEROME         CLOUDY    45  37  73 SW21G29   29.73R
TWIN FALLS     CLOUDY    49  37  63 W18G24    29.75R
$$

IDZ019>023-241700-
SOUTHEAST IDAHO


CITY           SKY/WX    TMP DP  RH WIND       PRES   REMARKS
IDAHO FALLS    PTSUNNY   54  36  50 SW13      29.70S
POCATELLO      SUNNY     52  36  54 W20       29.73R
REXBURG        CLOUDY    53  34  48 S14       29.69F
$$

IDZ006-010-011-018-031-032-241700-
CENTRAL IDAHO MOUNTAINS


CITY           SKY/WX    TMP DP  RH WIND       PRES   REMARKS
MCCALL         LGT RAIN  35  34  96 CALM      29.73R
HAILEY         CLOUDY    46  30  53 SE7       29.71F
STANLEY          N/A     41  28  60 N5        29.70S
SALMON         CLOUDY    48  39  71 NW7       29.67S
CHALLIS        CLOUDY    51  28  41 N7        29.63S
$$

IDZ002-004-006-007-026-241700-
NORTHERN IDAHO


CITY           SKY/WX    TMP DP  RH WIND       PRES   REMARKS
LEWISTON       CLOUDY    50  42  74 CALM      29.81R
LOWELL           N/A     46  43  89 CALM      29.84S
COEUR D`ALENE  CLOUDY    43  28  56 SW5       29.80R
MULLAN PASS    CLOUDY    28  27  96 VRB5      29.71R WCI  23
$$



USA.gov is the U.S. government's official web portal to all federal, state and local government web resources and services.